Location: Rowland
(34.5359°N, 79.2929°W)
Time: 19:08:08
(UTC+00:00)

Transit 2A Rocket - Pass Details

Date: 10 October 2022
Orbit: 589 x 911 km, 66.7° (Epoch: 03 December)

Event Time Altitude Azimuth Distance (km) Brightness Sun altitude
Rises 19:13:46 0° 320° (NW) 3,119 8.1 38.5°
Reaches altitude 10° 19:16:17 10° 309° (NW) 2,250 7.6 38.2°
Maximum altitude 19:20:42 29° 250° (WSW) 1,406 7.9 37.5°
Drops below altitude 10° 19:25:25 10° 192° (SSW) 2,422 8.5 36.8°
Sets 19:28:15 0° 181° (S) 3,401 8.9 36.4°
